Location: Unspecified
(0.0000°N, 0.0000°E)
Time: 10:40:37
(UTC+00:00)

A-11 Canister half - Pass Details

Date: 09 August 2021
Orbit: 1515 x 1685 km, 47.2° (Epoch: 27 September)

Event Time Altitude Azimuth Distance (km) Brightness Sun altitude
Rises 22:14:08 0° 336° (NNW) 4,918 12.0 -58.4°
Reaches altitude 10° 22:17:37 10° 343° (NNW) 3,937 11.3 -59.2°
Enters shadow 22:18:38 13° 346° (NNW) 3,663 11.1 -59.4°
Maximum altitude 22:26:52 40° 49° (NE) 2,310 - -61.1°
Drops below altitude 10° 22:36:00 10° 115° (ESE) 3,901 - -63.0°
Sets 22:39:23 0° 122° (ESE) 4,870 - -63.7°
